Temp
-8 -8 -9 -9 -8 -8 -7 -8 -8 -8 -8 -7 -7 -7 -7 -8 -8 -8 -7 -7 -7 -8 -8 -7 -8 -8 -8 -8 -8 -8 -8 -8 -8 -8 -8 -9 -9 -9 -10 -10 -10 -10 -10 -11 -10 -10 -10 -10 -10
-9 -9 -9 -9 -8 -8 -8 -8 -8 -8 -8 -7 -7 -7 -7 -7 -7 -7 -7 -7 -8 -8 -8 -8 -8 -8 -8 -8 -9 -9 -9 -9 -9 -9 -9 -9 -9 -10 -10 -11 -11 -11 -11 -11 -11 -11 -11 -11 -11
-9 -9 -9 -9 -8 -8 -8 -11 -9 -8 -7 -7 -7 -7 -7 -7 -7 -7 -7 -7 -8 -7 -8 -8 -8 -8 -8 -9 -9 -9 -9 -9 -9 -9 -9 -9 -10 -10 -11 -11 -11 -11 -11 -11 -11 -11 -12 -11 -12
-9 -9 -9 -9 -8 -8 -9 -9 -10 -8 -8 -8 -7 -7 -7 -7 -8 -8 -7 -7 -8 -8 -8 -8 -8 -9 -9 -9 -9 -9 -9 -9 -9 -9 -10 -10 -10 -10 -11 -11 -12 -11 -12 -12 -12 -12 -12 -12 -12
-9 -9 -9 -9 -8 -9 -9 -9 -9 -9 -9 -8 -8 -8 -7 -7 -8 -8 -7 -7 -8 -8 -8 -8 -9 -9 -9 -9 -9 -10 -10 -10 -10 -9 -10 -10 -11 -10 -11 -11 -12 -12 -12 -12 -12 -13 -13 -13 -12
-9 -10 -9 -9 -9 -9 -9 -9 -9 -9 -9 -8 -8 -8 -8 -8 -8 -8 -7 -8 -8 -8 -9 -9 -9 -10 -9 -9 -10 -10 -10 -10 -10 -10 -10 -10 -11 -11 -11 -12 -12 -12 -11 -11 -12 -13 -13 -13 -12
-10 -10 -9 -9 -10 -10 -10 -9 -10 -9 -9 -9 -9 -8 -8 -8 -7 -8 -8 -8 -8 -8 -9 -9 -10 -10 -10 -10 -10 -10 -11 -11 -10 -10 -10 -11 -11 -11 -11 -12 -12 -12 -11 -11 -12 -12 -13 -13 -12
-10 -10 -9 -9 -10 -10 -11 -10 -10 -10 -9 -9 -8 -8 -9 -8 -7 -9 -9 -9 -9 -9 -10 -10 -10 -10 -10 -10 -11 -11 -11 -11 -11 -11 -11 -11 -11 -11 -11 -11 -12 -11 -12 -12 -12 -12 -12 -13 -12
-11 -10 -10 -10 -10 -10 -10 -10 -11 -10 -9 -9 -9 -9 -9 -8 -8 -10 -9 -9 -9 -9 -10 -10 -10 -10 -10 -11 -11 -11 -11 -12 -11 -11 -11 -12 -11 -11 -11 -11 -12 -11 -12 -12 -11 -12 -12 -12 -12
-11 -11 -11 -11 -11 -11 -10 -10 -11 -10 -10 -10 -9 -9 -9 -9 -9 -9 -10 -10 -10 -10 -10 -11 -10 -10 -11 -11 -12 -12 -12 -12 -12 -12 -12 -12 -12 -11 -12 -11 -11 -11 -12 -12 -12 -12 -12 -12 -12
-11 -11 -11 -11 -11 -11 -11 -11 -11 -10 -10 -10 -10 -10 -10 -9 -9 -10 -10 -11 -11 -10 -11 -11 -11 -11 -11 -12 -13 -13 -13 -12 -12 -12 -12 -12 -12 -12 -12 -11 -11 -12 -12 -12 -12 -12 -12 -12 -12
-11 -11 -11 -11 -11 -11 -11 -11 -11 -11 -11 -10 -10 -10 -10 -10 -10 -10 -11 -11 -11 -11 -11 -12 -11 -11 -12 -12 -13 -13 -13 -13 -13 -13 -13 -13 -13 -12 -11 -11 -11 -12 -12 -12 -12 -12 -11 -12 -12
-12 -12 -12 -11 -11 -11 -11 -11 -11 -11 -11 -11 -10 -10 -10 -10 -10 -10 -11 -11 -11 -11 -11 -12 -12 -12 -12 -13 -13 -13 -13 -13 -13 -13 -13 -13 -13 -12 -12 -12 -12 -12 -11 -12 -12 -11 -11 -12 -12
-13 -13 -12 -12 -12 -11 -12 -12 -11 -11 -12 -11 -11 -11 -11 -10 -10 -10 -11 -11 -11 -11 -12 -13 -13 -13 -13 -14 -13 -13 -14 -14 -13 -13 -13 -13 -13 -12 -12 -12 -12 -12 -12 -12 -11 -11 -11 -12 -12
-13 -13 -13 -13 -13 -12 -12 -12 -11 -12 -12 -11 -12 -11 -11 -11 -11 -11 -11 -11 -12 -12 -12 -12 -13 -13 -14 -14 -14 -14 -14 -14 -13 -13 -13 -13 -13 -12 -12 -12 -12 -12 -12 -12 -12 -12 -12 -12 -12
-14 -13 -13 -14 -15 -14 -13 -12 -12 -12 -12 -12 -12 -12 -11 -11 -11 -11 -11 -11 -12 -12 -13 -13 -14 -14 -14 -15 -14 -14 -14 -14 -13 -13 -13 -13 -13 -13 -12 -12 -13 -13 -12 -12 -12 -11 -11 -12 -12
-14 -14 -15 -15 -16 -16 -15 -13 -13 -12 -11 -12 -12 -12 -12 -11 -11 -11 -11 -11 -11 -12 -13 -13 -14 -14 -15 -15 -14 -14 -14 -13 -13 -13 -13 -13 -13 -13 -13 -13 -13 -13 -13 -12 -12 -12 -12 -12 -12
-17 -17 -17 -17 -18 -15 -16 -15 -14 -13 -13 -12 -12 -12 -12 -11 -11 -11 -11 -11 -12 -12 -12 -13 -14 -15 -15 -14 -15 -14 -14 -14 -13 -13 -13 -13 -13 -13 -13 -13 -12 -13 -13 -12 -12 -12 -12 -12 -12
-17 -16 -16 -17 -19 -18 -17 -15 -15 -14 -13 -13 -13 -12 -12 -12 -12 -12 -12 -12 -11 -12 -12 -14 -14 -15 -15 -15 -15 -14 -14 -14 -14 -13 -13 -13 -13 -13 -13 -12 -12 -12 -12 -13 -12 -12 -12 -13 -12
-17 -18 -18 -19 -19 -19 -17 -16 -15 -15 -13 -14 -13 -13 -12 -12 -12 -12 -12 -12 -11 -12 -13 -14 -15 -15 -15 -15 -15 -14 -14 -14 -14 -14 -14 -13 -13 -13 -13 -12 -12 -12 -12 -12 -13 -13 -12 -13 -12
-20 -20 -19 -19 -19 -18 -18 -16 -16 -16 -14 -14 -13 -13 -12 -12 -12 -12 -12 -12 -12 -13 -13 -14 -15 -15 -15 -16 -15 -15 -14 -15 -14 -14 -14 -13 -13 -13 -13 -13 -12 -11 -12 -13 -13 -13 -12 -12 -13
-19 -20 -20 -20 -20 -19 -19 -16 -16 -15 -14 -14 -13 -13 -13 -13 -12 -12 -12 -12 -12 -13 -14 -14 -15 -15 -15 -16 -15 -15 -15 -15 -14 -14 -13 -13 -14 -13 -13 -13 -12 -11 -12 -13 -12 -13 -13 -12 -13
-19 -20 -20 -20 -20 -19 -18 -17 -15 -16 -15 -14 -13 -13 -13 -12 -12 -12 -12 -12 -13 -13 -14 -15 -15 -15 -15 -16 -15 -15 -15 -14 -14 -14 -14 -14 -14 -13 -13 -12 -12 -11 -13 -12 -12 -13 -13 -13 -13
-20 -20 -20 -20 -20 -19 -18 -18 -16 -17 -15 -14 -13 -13 -13 -12 -12 -12 -12 -13 -13 -13 -14 -15 -16 -15 -16 -16 -16 -15 -15 -14 -14 -14 -14 -14 -14 -14 -13 -13 -13 -12 -12 -12 -12 -12 -12 -13 -13
-20 -20 -20 -20 -19 -18 -19 -18 -17 -16 -15 -14 -13 -13 -13 -12 -12 -12 -13 -14 -15 -14 -14 -15 -15 -15 -16 -17 -16 -15 -15 -14 -14 -14 -14 -14 -14 -13 -13 -13 -13 -13 -12 -12 -12 -13 -12 -13 -13
-19 -20 -20 -20 -19 -18 -17 -17 -18 -16 -15 -15 -14 -14 -13 -13 -13 -14 -15 -15 -15 -15 -15 -15 -15 -15 -16 -16 -16 -15 -15 -14 -14 -14 -14 -14 -14 -13 -13 -13 -13 -13 -13 -13 -13 -13 -13 -13 -13
-20 -20 -20 -20 -19 -19 -18 -18 -18 -16 -16 -16 -15 -14 -15 -14 -14 -15 -16 -16 -16 -15 -15 -15 -15 -16 -15 -16 -16 -15 -15 -14 -14 -15 -14 -14 -14 -13 -13 -13 -13 -13 -13 -13 -13 -13 -13 -13 -13
-20 -20 -19 -20 -19 -19 -19 -18 -17 -17 -16 -16 -15 -15 -15 -15 -15 -15 -15 -16 -15 -15 -15 -15 -16 -15 -16 -16 -15 -15 -15 -14 -14 -15 -14 -14 -14 -14 -13 -13 -13 -13 -13 -13 -13 -13 -13 -13 -13
-20 -19 -19 -19 -19 -19 -18 -17 -17 -17 -17 -16 -15 -16 -15 -15 -15 -15 -15 -16 -15 -15 -15 -15 -15 -15 -16 -15 -15 -15 -15 -14 -14 -15 -15 -14 -14 -14 -14 -13 -13 -13 -13 -13 -13 -14 -13 -13 -13
-20 -19 -19 -19 -19 -19 -19 -18 -17 -18 -17 -16 -16 -16 -16 -15 -16 -16 -16 -16 -16 -16 -15 -15 -15 -16 -16 -15 -15 -16 -15 -14 -14 -15 -15 -14 -14 -14 -14 -14 -13 -13 -13 -13 -14 -14 -14 -14 -14
Height
5826 5826 5826 5827 5829 5828 5830 5833 5831 5831 5830 5830 5832 5832 5833 5832 5831 5832 5828 5828 5827 5826 5826 5826 5825 5825 5823 5822 5820 5819 5818 5817 5816 5816 5815 5814 5813 5813 5811 5810 5811 5811 5810 5811 5812 5813 5814 5817 5821
5820 5820 5820 5820 5822 5821 5824 5827 5825 5825 5823 5826 5826 5827 5827 5825 5825 5825 5823 5822 5822 5821 5821 5821 5821 5820 5819 5817 5814 5813 5813 5812 5811 5810 5810 5811 5809 5808 5807 5806 5808 5807 5807 5807 5807 5808 5810 5813 5816
5813 5814 5815 5814 5813 5816 5818 5824 5817 5818 5817 5819 5821 5821 5820 5819 5819 5819 5818 5817 5817 5817 5817 5816 5816 5814 5814 5812 5810 5809 5808 5808 5807 5805 5804 5804 5803 5804 5803 5802 5801 5802 5803 5803 5804 5805 5808 5810 5812
5807 5807 5808 5807 5809 5812 5812 5814 5809 5811 5812 5813 5813 5813 5813 5812 5813 5812 5813 5812 5811 5812 5812 5811 5810 5808 5808 5806 5805 5805 5804 5803 5802 5801 5800 5798 5798 5799 5799 5798 5797 5798 5798 5800 5800 5802 5805 5807 5808
5800 5800 5800 5800 5803 5804 5804 5805 5804 5806 5805 5806 5806 5806 5805 5806 5806 5806 5806 5806 5806 5807 5807 5805 5803 5802 5802 5801 5800 5800 5799 5797 5797 5795 5795 5793 5793 5793 5793 5793 5794 5794 5793 5793 5795 5799 5802 5802 5804
5792 5794 5792 5794 5797 5796 5795 5794 5798 5797 5799 5799 5799 5799 5798 5798 5799 5798 5799 5799 5799 5801 5801 5799 5797 5796 5796 5796 5795 5794 5792 5792 5791 5790 5790 5789 5788 5788 5788 5789 5790 5790 5786 5785 5788 5791 5796 5799 5802
5786 5784 5786 5787 5788 5788 5787 5786 5791 5791 5792 5791 5791 5790 5792 5788 5792 5792 5791 5792 5793 5793 5794 5793 5792 5791 5790 5790 5789 5788 5787 5787 5786 5785 5784 5784 5783 5783 5783 5783 5784 5784 5788 5788 5787 5786 5788 5793 5798
5777 5776 5775 5780 5781 5781 5780 5777 5785 5783 5782 5781 5781 5783 5784 5779 5786 5786 5785 5786 5787 5787 5788 5787 5787 5786 5785 5784 5782 5782 5781 5780 5781 5779 5779 5779 5778 5777 5777 5777 5778 5778 5781 5781 5782 5783 5784 5787 5794
5768 5766 5768 5773 5772 5771 5768 5771 5773 5774 5773 5773 5773 5774 5773 5775 5778 5779 5779 5780 5781 5782 5782 5782 5781 5780 5779 5778 5777 5776 5776 5775 5775 5773 5773 5773 5772 5771 5772 5772 5773 5773 5776 5777 5777 5781 5783 5785 5790
5757 5759 5761 5763 5762 5756 5759 5762 5763 5765 5766 5766 5764 5766 5766 5769 5768 5771 5772 5773 5775 5776 5776 5777 5775 5774 5773 5772 5771 5769 5769 5769 5768 5769 5767 5767 5767 5766 5766 5767 5768 5769 5772 5774 5775 5778 5780 5783 5786
5748 5749 5752 5753 5748 5749 5751 5752 5755 5754 5757 5758 5759 5757 5758 5759 5761 5764 5765 5766 5768 5769 5769 5770 5770 5769 5766 5765 5765 5763 5763 5763 5762 5764 5762 5761 5761 5760 5760 5762 5763 5766 5768 5769 5770 5772 5776 5779 5783
5731 5737 5738 5742 5741 5737 5742 5743 5746 5747 5748 5747 5748 5751 5751 5750 5754 5757 5758 5760 5761 5762 5763 5764 5764 5762 5760 5759 5759 5758 5757 5757 5756 5758 5757 5755 5754 5755 5754 5756 5758 5761 5763 5765 5765 5767 5771 5775 5779
5719 5721 5726 5727 5728 5729 5731 5733 5738 5736 5735 5739 5742 5742 5742 5743 5746 5749 5750 5752 5753 5755 5756 5757 5756 5755 5754 5752 5754 5753 5752 5752 5752 5752 5751 5750 5749 5750 5750 5751 5753 5755 5755 5758 5760 5763 5766 5771 5775
5709 5710 5710 5714 5716 5718 5720 5724 5724 5728 5730 5728 5731 5733 5734 5736 5738 5741 5742 5744 5746 5748 5748 5749 5749 5748 5747 5747 5748 5748 5747 5748 5747 5747 5746 5744 5743 5745 5746 5746 5748 5749 5750 5753 5756 5758 5761 5766 5770
5695 5699 5699 5703 5704 5706 5707 5711 5713 5717 5718 5718 5721 5725 5726 5727 5731 5734 5735 5737 5739 5739 5740 5742 5743 5742 5741 5741 5743 5742 5741 5742 5743 5742 5741 5740 5740 5740 5741 5741 5743 5744 5745 5747 5750 5753 5758 5761 5765
5686 5685 5686 5692 5690 5692 5695 5700 5703 5705 5708 5709 5712 5714 5716 5720 5723 5725 5727 5729 5731 5731 5732 5734 5735 5735 5735 5735 5736 5736 5735 5736 5737 5736 5735 5734 5736 5736 5736 5738 5738 5739 5741 5742 5746 5748 5754 5757 5759
5672 5675 5674 5677 5676 5678 5682 5686 5690 5692 5695 5700 5702 5706 5708 5712 5714 5716 5718 5721 5722 5722 5724 5725 5728 5728 5728 5730 5730 5729 5730 5729 5732 5731 5731 5730 5731 5732 5732 5732 5733 5734 5736 5738 5741 5741 5749 5752 5755
5662 5661 5664 5666 5668 5664 5674 5674 5679 5682 5685 5691 5692 5697 5700 5702 5705 5707 5709 5711 5712 5713 5715 5717 5721 5722 5723 5724 5724 5724 5724 5724 5726 5726 5726 5727 5727 5727 5728 5729 5729 5730 5731 5733 5736 5740 5743 5747 5751
5649 5650 5652 5656 5655 5658 5663 5665 5669 5672 5676 5680 5684 5687 5691 5693 5696 5697 5699 5703 5701 5704 5707 5709 5715 5715 5717 5718 5719 5719 5718 5719 5720 5721 5721 5722 5722 5723 5723 5723 5724 5725 5725 5727 5729 5733 5736 5741 5747
5639 5640 5644 5648 5649 5650 5654 5654 5658 5664 5666 5671 5674 5677 5680 5684 5685 5686 5691 5693 5692 5696 5699 5702 5708 5709 5712 5712 5713 5713 5713 5714 5714 5715 5715 5716 5715 5715 5715 5715 5716 5718 5719 5721 5723 5728 5732 5737 5738
5633 5634 5637 5638 5642 5643 5646 5647 5655 5653 5658 5662 5664 5669 5671 5673 5675 5678 5681 5683 5685 5688 5691 5696 5702 5702 5705 5706 5707 5708 5709 5709 5709 5710 5710 5708 5706 5705 5704 5705 5707 5709 5711 5714 5718 5722 5725 5732 5733
5625 5630 5629 5631 5634 5638 5639 5638 5644 5646 5651 5653 5656 5658 5662 5664 5666 5669 5671 5674 5675 5679 5684 5689 5694 5697 5699 5700 5702 5703 5704 5704 5704 5705 5703 5701 5699 5695 5695 5697 5698 5701 5704 5707 5712 5718 5721 5725 5730
5618 5620 5624 5626 5627 5629 5634 5632 5638 5640 5643 5642 5647 5650 5653 5654 5657 5660 5662 5664 5665 5669 5675 5681 5686 5690 5693 5695 5696 5698 5699 5700 5700 5699 5698 5697 5694 5692 5691 5692 5692 5693 5696 5700 5706 5712 5716 5721 5724
5613 5613 5617 5619 5621 5619 5630 5629 5634 5636 5632 5636 5638 5640 5643 5645 5647 5649 5650 5652 5654 5656 5664 5672 5679 5683 5688 5690 5692 5694 5696 5696 5697 5696 5695 5692 5691 5689 5688 5687 5686 5687 5689 5694 5700 5707 5712 5716 5719
5607 5608 5612 5615 5615 5617 5622 5623 5630 5624 5627 5628 5629 5632 5635 5637 5638 5639 5639 5641 5646 5646 5657 5665 5673 5677 5682 5684 5687 5690 5692 5693 5694 5693 5691 5689 5688 5687 5685 5684 5683 5678 5684 5689 5694 5700 5706 5710 5714
5602 5603 5606 5610 5614 5616 5615 5616 5621 5617 5620 5622 5623 5625 5627 5628 5629 5631 5632 5634 5639 5644 5651 5659 5666 5672 5676 5679 5683 5686 5688 5689 5691 5690 5688 5686 5686 5685 5683 5682 5681 5678 5680 5684 5688 5695 5701 5705 5709
5598 5597 5603 5600 5606 5607 5608 5614 5614 5612 5614 5614 5614 5617 5620 5621 5624 5625 5626 5630 5634 5639 5648 5655 5660 5666 5670 5674 5678 5681 5684 5686 5688 5687 5685 5685 5684 5684 5682 5681 5680 5680 5679 5682 5685 5692 5697 5701 5705
5590 5593 5595 5598 5600 5602 5606 5609 5608 5606 5608 5608 5609 5611 5613 5616 5620 5622 5623 5627 5631 5638 5644 5649 5655 5660 5665 5669 5674 5676 5680 5682 5684 5684 5683 5683 5683 5682 5681 5681 5679 5679 5680 5681 5684 5688 5692 5697 5703
5584 5587 5591 5593 5595 5597 5602 5604 5599 5600 5601 5603 5604 5605 5608 5611 5613 5616 5620 5623 5629 5636 5639 5644 5650 5655 5659 5665 5669 5671 5675 5678 5680 5680 5680 5679 5680 5679 5679 5678 5678 5679 5680 5681 5683 5686 5691 5696 5699
5579 5581 5584 5587 5591 5592 5593 5595 5592 5595 5595 5597 5598 5600 5602 5606 5608 5611 5614 5619 5625 5630 5634 5638 5646 5651 5655 5659 5664 5667 5670 5673 5675 5675 5676 5676 5677 5677 5677 5677 5678 5678 5679 5681 5683 5686 5689 5692 5696
Wind_Speed
30 31 31 30 31 32 32 28 30 30 28 27 23 22 22 21 25 27 29 27 25 21 18 17 16 19 19 17 18 20 23 25 26 27 24 22 21 23 24 23 21 20 23 23 24 26 27 26 25
33 33 33 33 32 32 31 28 33 30 34 27 27 25 24 27 30 26 30 29 27 24 20 18 17 20 21 20 20 21 22 24 26 27 25 23 23 23 25 26 23 23 21 23 24 26 27 26 24
34 35 36 35 34 32 33 19 35 35 36 32 31 30 30 31 30 30 30 30 28 25 20 20 19 20 23 21 21 22 23 24 26 28 27 27 27 25 26 27 23 24 23 22 24 25 25 25 25
36 37 38 38 35 35 35 36 40 36 36 35 35 36 37 36 32 32 31 33 32 25 20 21 21 21 23 24 23 23 24 25 27 30 27 27 28 27 27 26 25 23 25 24 23 23 24 27 27
38 39 39 39 36 36 39 38 40 37 38 37 38 37 39 37 36 35 36 37 34 26 19 21 22 23 25 25 25 24 26 27 30 31 28 27 27 26 26 26 26 24 25 25 24 24 25 29 29
42 40 43 40 39 40 41 45 35 39 37 37 39 38 39 39 38 39 40 37 33 26 19 20 23 24 26 26 27 27 26 29 31 31 29 27 27 26 25 25 25 24 25 27 26 25 30 30 29
44 46 45 44 42 44 43 47 35 40 37 39 40 41 40 44 41 42 40 38 32 28 18 21 23 25 27 27 28 29 28 30 32 32 28 27 25 24 25 24 27 28 26 35 32 30 31 34 34
48 48 50 47 43 43 46 48 35 40 42 44 45 44 43 48 44 40 41 36 32 28 19 20 22 26 29 29 30 30 29 30 34 32 30 26 26 25 25 25 26 29 23 22 23 35 33 34 34
49 52 50 43 42 42 44 39 37 41 46 45 45 44 47 45 41 41 41 34 34 26 21 19 24 27 29 30 30 30 30 31 34 32 30 27 26 24 24 26 25 20 21 21 16 30 33 29 36
52 53 49 44 45 51 47 44 44 43 43 45 46 44 44 44 44 42 39 36 33 25 20 19 24 29 31 30 28 28 28 31 34 31 30 28 25 25 26 27 25 27 28 19 22 23 35 27 33
53 55 54 52 53 53 50 49 45 47 46 46 44 46 43 42 38 37 36 36 35 28 21 20 25 30 32 30 28 27 27 31 31 28 28 29 24 22 25 30 26 27 23 23 24 22 30 27 31
55 55 55 58 57 61 55 48 47 46 45 46 45 39 42 41 33 33 35 36 36 27 24 21 26 31 34 33 29 26 28 31 30 27 26 28 24 21 25 27 28 27 26 26 29 27 34 29 33
56 55 56 57 56 57 54 50 48 51 50 45 41 40 40 40 35 32 32 34 34 27 25 26 29 32 34 36 28 27 28 31 29 27 24 24 22 21 23 25 25 25 26 21 26 24 28 31 34
55 55 57 55 56 56 54 52 51 48 45 47 44 41 39 39 37 34 32 31 30 29 29 30 31 33 33 33 29 29 29 31 29 25 23 21 21 21 23 22 27 26 27 24 29 24 30 34 35
55 54 57 54 55 52 52 52 48 46 47 47 43 41 41 39 36 33 30 29 30 31 33 30 31 33 32 32 28 30 30 30 29 25 23 19 20 21 21 22 24 27 26 23 30 25 35 31 35
53 56 58 54 55 55 52 51 49 48 46 47 44 41 41 38 33 33 30 27 30 33 35 32 31 33 30 31 28 30 31 29 28 25 22 21 20 21 20 21 20 23 26 21 32 32 33 37 36
55 55 51 53 55 54 50 51 48 49 47 42 44 42 40 36 34 32 28 26 29 33 34 33 33 32 30 27 30 28 30 28 28 25 23 22 22 21 21 22 24 25 25 27 30 31 36 38 38
48 50 49 45 43 56 48 51 48 47 45 40 42 40 37 35 32 29 29 29 32 31 29 34 33 31 26 27 25 26 26 27 25 24 22 23 23 22 22 23 24 25 28 28 28 39 38 40 39
55 51 49 46 45 45 48 55 48 46 44 40 38 39 36 35 34 32 32 31 35 32 32 35 31 27 25 24 26 24 24 24 23 24 21 24 24 25 28 28 27 24 27 25 27 37 41 42 37
40 38 43 37 39 44 44 53 50 40 43 36 36 38 37 35 36 34 32 36 35 33 35 36 30 28 22 25 23 22 24 22 23 23 22 25 28 32 34 36 35 31 30 28 29 28 36 39 41
34 34 35 42 40 38 36 40 35 42 37 33 35 35 34 36 34 32 34 39 35 35 34 33 29 29 25 27 22 21 22 23 23 22 24 27 29 33 35 36 36 33 31 28 26 30 30 38 39
40 29 34 31 34 33 31 37 34 35 31 32 33 34 34 34 34 35 38 39 38 35 32 33 32 31 28 27 22 21 21 24 21 21 24 24 26 24 27 31 33 32 34 33 35 28 30 33 38
39 38 35 34 36 35 29 33 27 24 27 34 33 34 32 32 35 37 40 41 41 37 36 34 34 34 29 29 24 21 20 22 19 22 20 20 17 16 18 21 28 32 30 41 34 36 28 28 36
33 34 34 30 30 36 25 31 19 17 29 27 33 32 34 34 34 37 40 42 47 46 41 36 36 36 31 31 27 21 21 20 18 21 19 13 14 13 13 15 21 33 31 36 31 38 37 33 38
35 31 29 26 30 32 22 26 19 26 22 27 30 28 28 30 32 34 38 37 42 49 37 34 38 38 37 34 27 21 22 19 20 18 16 9 10 11 11 10 13 17 31 31 38 38 40 33 42
29 35 33 22 17 14 25 29 19 30 25 25 26 24 27 25 24 24 26 32 37 35 37 36 40 39 34 34 25 22 22 19 19 15 13 10 8 7 10 9 10 8 24 29 34 41 39 41 46
28 35 24 30 24 25 22 10 23 24 20 23 26 26 24 20 20 17 21 26 30 34 32 38 37 37 35 31 25 23 22 21 20 13 11 9 8 8 4 6 6 8 9 22 25 36 40 37 44
28 23 22 26 21 23 15 15 25 23 20 23 27 29 27 28 25 21 22 25 31 31 34 35 36 36 31 29 23 23 23 23 22 14 10 9 8 7 7 6 5 8 9 11 20 29 24 35 38
24 25 24 25 23 19 14 16 25 25 22 23 27 32 31 27 27 28 31 28 31 32 36 36 37 31 30 26 21 22 23 24 23 17 13 10 10 10 10 8 6 6 9 11 11 10 14 25 27
24 23 22 28 24 24 21 20 16 19 21 24 26 30 34 28 28 30 31 35 35 39 42 43 33 30 31 29 24 21 22 24 23 19 17 14 12 10 8 10 10 11 9 11 12 15 17 23 21
Wind_Direction
261 259 259 258 257 259 261 258 258 261 259 260 272 270 268 264 270 269 282 277 279 285 293 300 305 308 304 301 297 295 293 290 294 289 287 288 282 283 275 268 267 267 258 252 246 240 229 230 232
261 260 256 255 255 257 257 255 256 255 257 264 267 274 272 269 273 274 275 277 279 285 293 296 300 302 301 300 297 295 295 292 290 285 285 283 277 274 270 269 264 266 264 257 244 236 229 221 220
261 260 258 253 252 251 251 247 255 252 262 262 265 271 273 271 273 275 275 274 278 284 290 292 295 298 297 295 296 293 294 293 288 282 282 283 277 269 264 263 263 264 261 259 249 237 227 221 215
260 259 258 257 255 255 252 248 256 253 259 260 264 271 270 269 270 272 276 277 279 281 281 285 289 293 291 293 295 291 290 291 286 281 280 281 281 272 263 259 257 262 259 252 245 229 222 220 211
260 258 257 256 256 257 258 253 255 262 259 261 262 266 269 268 267 269 275 276 276 280 276 284 288 291 289 290 291 285 288 288 284 278 280 281 276 271 266 260 260 263 248 233 232 232 221 214 211
261 260 258 257 261 260 256 257 254 257 258 261 261 260 261 265 266 268 272 272 272 279 276 281 284 287 288 288 290 285 286 286 281 279 278 277 274 277 266 260 257 259 245 236 227 225 223 217 209
262 261 260 259 258 260 260 257 258 259 259 257 257 259 260 260 267 271 269 271 273 278 282 280 283 286 290 292 287 283 284 285 282 279 276 278 275 271 265 262 253 256 251 233 252 225 218 214 211
261 259 257 258 259 263 264 265 264 259 254 254 256 258 259 262 268 266 267 267 271 277 280 279 284 289 291 290 286 281 280 282 280 277 276 278 274 271 270 262 259 253 254 264 263 238 216 211 212
257 256 257 256 258 259 258 267 264 257 256 256 257 257 259 267 267 262 266 267 270 275 276 280 282 286 286 283 282 276 278 281 279 275 277 280 274 267 265 253 257 229 244 264 253 231 220 211 214
255 256 254 253 253 252 257 263 261 263 262 257 257 258 260 264 266 264 262 265 269 271 275 274 278 284 283 282 274 272 276 278 276 271 277 276 270 265 265 254 253 240 239 253 249 251 228 212 215
260 254 256 253 253 257 259 259 261 257 257 262 261 258 258 260 259 260 264 268 270 272 275 277 273 277 278 281 272 274 280 280 272 269 274 272 268 264 264 248 243 247 241 249 257 236 229 211 217
255 255 254 254 258 258 255 256 259 263 258 255 256 258 255 255 256 263 265 266 267 269 274 273 266 273 276 278 271 279 287 284 272 270 272 268 267 265 264 255 247 241 242 241 245 228 232 218 216
253 252 253 254 256 258 254 251 256 258 254 255 256 256 250 252 255 251 253 260 262 266 274 266 260 265 271 274 268 274 284 288 270 269 270 269 270 268 267 254 246 242 240 239 210 229 219 214 214
258 254 252 252 254 256 255 251 251 253 255 254 253 251 250 253 256 252 244 248 254 264 266 265 259 260 269 272 269 274 288 287 270 267 270 270 274 272 261 253 245 246 240 227 220 220 209 208 212
255 257 255 251 252 251 250 248 248 247 247 251 250 248 251 252 255 254 251 252 251 260 262 263 263 261 268 269 266 273 286 284 269 264 265 268 272 270 259 254 243 241 242 222 213 224 206 211 215
259 256 254 250 250 248 246 248 247 247 243 245 247 246 248 249 247 248 254 253 250 256 259 261 261 261 265 268 267 276 280 280 266 261 265 267 265 265 261 249 242 238 243 236 221 214 205 215 217
261 260 259 250 247 247 248 242 244 242 242 242 245 244 245 245 245 247 250 249 248 255 257 257 257 259 262 265 268 274 275 281 261 259 260 262 262 260 257 254 252 253 243 242 225 211 206 212 219
262 259 255 255 252 248 241 245 246 246 246 238 243 243 240 241 243 241 242 246 253 261 258 254 254 256 260 260 267 273 273 278 255 259 258 259 259 259 259 256 252 253 264 247 232 214 216 218 218
260 255 255 249 246 249 248 240 244 248 248 242 237 239 235 238 238 238 240 245 256 258 255 253 252 252 250 261 263 270 277 270 257 258 257 258 259 262 263 261 259 254 253 253 227 219 217 215 224
255 252 250 253 255 248 248 245 240 250 249 247 240 236 235 232 235 241 244 244 255 255 254 251 242 240 245 258 262 273 277 262 257 259 261 267 269 266 261 258 257 254 250 244 233 227 222 217 224
256 255 259 247 247 250 259 250 245 251 256 249 243 237 235 237 241 246 249 248 256 249 250 246 234 235 240 260 264 275 272 259 258 264 276 278 275 267 260 253 246 244 239 231 223 234 235 223 228
256 249 252 254 251 250 256 255 247 254 255 250 243 239 236 239 246 248 249 248 254 246 242 229 225 231 242 260 267 276 267 259 262 273 279 281 284 272 254 247 237 236 233 215 219 231 236 231 230
257 243 248 248 255 252 238 272 250 260 248 239 240 241 247 247 249 252 253 250 244 239 231 220 221 228 241 256 267 273 266 258 266 282 277 276 283 282 255 249 243 229 224 215 228 224 226 231 235
256 247 253 252 252 251 239 257 267 226 239 240 242 245 245 249 253 255 257 252 243 235 219 211 216 227 238 254 263 272 259 252 269 278 270 273 272 279 274 248 274 224 232 208 219 223 229 232 232
250 248 247 252 254 259 251 249 229 249 246 245 244 249 253 254 260 265 259 246 247 239 207 208 215 225 236 249 257 265 248 247 266 272 267 272 276 271 276 267 271 228 217 217 215 219 224 227 233
261 252 243 245 250 254 234 246 247 249 247 253 255 253 253 256 258 259 253 244 229 217 212 208 211 223 229 243 252 249 241 242 259 266 258 260 271 287 283 251 265 274 208 222 214 214 225 234 231
249 246 242 240 229 227 234 246 250 250 251 252 251 247 242 238 243 244 222 218 212 214 210 205 214 218 222 239 249 241 237 239 253 256 245 239 252 261 286 242 240 245 215 205 209 209 221 223 222
249 245 240 230 238 244 256 250 248 255 250 249 250 247 238 232 241 232 212 211 214 212 204 207 216 215 223 233 240 236 235 237 247 251 240 218 219 232 228 219 222 218 218 214 214 221 221 222 231
250 237 230 236 229 228 211 223 235 244 249 250 247 244 240 239 242 219 210 209 212 198 201 215 212 215 223 230 238 236 235 238 244 248 240 219 224 214 211 213 213 213 206 218 227 210 213 227 231
242 241 239 238 241 232 235 229 249 251 248 249 253 248 244 246 235 211 205 203 203 204 208 216 207 218 227 230 228 236 237 239 242 240 240 230 235 240 228 220 209 211 209 205 210 226 227 222 239